Location: Pace/Milton
(30.6162°N, 87.1503°W)
Time: 07:33:13
(UTC-06:00)

Hubble Space Telescope - Pass Details

Date: 03 December 2021
Orbit: 535 x 538 km, 28.5° (Epoch: 23 January)

Event Time Altitude Azimuth Distance (km) Brightness Sun altitude
Exits shadow 04:04:20 23° 122° (ESE) 1,139 3.0 -30.7°
Drops below altitude 10° 04:06:04 10° 113° (ESE) 1,772 4.3 -30.3°
Sets 04:08:22 0° 108° (ESE) 2,662 5.5 -29.8°
